Humidity-temperature Sensor

Selected Measurement Type: Relative Humidity

 
Relative Humidity [%]     6 entries per hour
Showing data from 5/7/2022 (00:00:00 Z) to 5/6/2022 (00:01:00 Z)
Previous Next [ Day | 3-Days | 7-Days ]
First Last
Prev [ Day | 3-Days | 7-Days ] Next
First Last

Start Time:     :
End Time:     :     
Time (in GMT) :00 :50 :40 :30 :20 :10
Previous Next [ Day | 3-Days | 7-Days ]
First Last
Prev [ Day | 3-Days | 7-Days ] Next
First Last


123 => good data
MM => data is determined as missing
-- => data not received/configured
Back to Top Back to Top
5/7/2022 00:00 to 23:10 95.61 95.94 95.59 95.20 94.79 94.40
5/6/2022 23:00 to 22:10 94.89 96.14 96.53 97.03 96.57 96.10
5/6/2022 22:00 to 21:10 95.81 95.44 94.58 93.06 93.24 93.41
5/6/2022 21:00 to 20:10 95.03 96.16 97.68 98.38 98.51 99.08
5/6/2022 20:00 to 19:10 99.55 99.88 99.86 99.92 99.53 99.39
5/6/2022 19:00 to 18:10 99.20 99.18 99.49 98.96 98.90 98.73
5/6/2022 18:00 to 17:10 98.48 98.03 97.66 97.19 96.72 96.53
5/6/2022 17:00 to 16:10 96.61 96.29 95.87 95.53 94.95 94.17
5/6/2022 16:00 to 15:10 93.45 92.71 91.95 92.07 91.89 91.93
5/6/2022 15:00 to 14:10 92.40 92.75 92.63 92.87 93.29 93.76
5/6/2022 14:00 to 13:10 94.05 94.50 94.91 95.14 94.93 94.83
5/6/2022 13:00 to 12:10 94.64 94.54 94.50 93.70 92.69 91.27
5/6/2022 12:00 to 11:10 92.20 93.35 93.24 92.40 92.07 91.95
5/6/2022 11:00 to 10:10 91.58 91.66 91.85 92.73 93.29 93.45
5/6/2022 10:00 to 9:10 93.72 93.53 93.20 93.00 92.18 91.42
5/6/2022 09:00 to 8:10 90.24 87.74 87.68 87.45 87.10 86.57
5/6/2022 08:00 to 7:10 87.08 86.83 86.24 86.11 86.53 86.71
5/6/2022 07:00 to 6:10 86.92 86.92 86.98 86.26 86.16 85.83
5/6/2022 06:00 to 5:10 85.99 86.50 86.96 86.73 86.65 86.69
5/6/2022 05:00 to 4:10 87.12 86.98 86.90 86.57 86.22 86.61
5/6/2022 04:00 to 3:10 86.30 86.38 86.42 86.05 85.97 86.05
5/6/2022 03:00 to 2:10 86.50 86.26 86.20 86.34 86.59 86.50
5/6/2022 02:00 to 1:10 85.91 86.26 86.38 86.24 86.30 86.34
5/6/2022 01:00 to 0:10 86.55 86.26 86.13 85.72 85.62 85.11